Orbital Elements at Epoch 2459200.5 (2020-Dec-17.0) TDB
Reference: JPL 17 (heliocentric ecliptic J2000)
Element | Value | Uncertainty (1-sigma) | Units |
e | .2345247934265896 | 3.291e-08 | |
a | 2.570338469271413 | 1.359e-08 | au |
q | 1.967530370729119 | 8.2309e-08 | au |
i | 4.27829155102453 | 9.6771e-06 | deg |
node | 17.08903293761103 | 7.2168e-05 | deg |
peri | 71.44790352329561 | 7.6857e-05 | deg |
M | 202.1245383741591 | 2.675e-05 | deg |
tp | 2459860.579178839966 (2022-Oct-08.07917884) | 0.000115 | TDB |
period | 1505.164272745302 4.12 | 1.1938e-05 3.268e-08 | d yr |
n | .239176551369631 | 1.8969e-09 | deg/d |
Q | 3.173146567813708 | 1.6778e-08 | au |
|
| | Orbit Determination Parameters
Additional Information
|